Zurück zum Katalog

THORAD AGENA D DEB

AktivVLEO
NORAD 4435·DEBRIS·🇺🇸 United States

Gestartet Sep 30, 1969 von Vandenberg Space Force Base

Loading…

Nächste Überflüge (nächste 24 Stunden)

TLE

AktuellSource: Space-Track

Epoche: Sep 13, 2026, 23:42 UTC

1 04435U 69082EG  26256.98766367  .00007582  00000-0  69493-3 0  9990
2 04435  70.0091 104.4225 0010210 100.9416 259.2891 14.95228835980402

Verfolge THORAD AGENA D DEB in Echtzeit mit AllMySat

Download on the App Store